This demonstration page uses our WeatherBlox Daily Observations layout. Learn more.

Left ArrowRight Arrow

39.51506, -84.39828

Hourly Observations for June 7, 2019

Temp ( °F °C ) Dew Point ( °F °C ) Humidity (%) Winds ( mph kmh ) Pressure ( in mb ) Visibility ( mi km ) Precip ( " mm )
12:15 am 00:15 Clear 71 21.4 65 18.2 82 82 NE 8 13 29.87 1012 10 16 N/A
12:35 am 00:35 Partly Cloudy 70 21.1 65 18.1 83 83 NNE 7 11 29.87 1012 10 16 N/A
12:55 am 00:55 Clear 69 20.6 64 18 85 85 NNE 7 11 29.87 1012 10 16 N/A
1:15 am 01:15 Clear 68 20.2 64 17.9 87 87 NNE 7 11 29.87 1012 10 16 N/A
1:35 am 01:35 Clear 67 19.7 64 17.7 88 88 NNE 7 11 29.88 1012 10 16 N/A
1:55 am 01:55 Clear 67 19.6 64 17.6 88 88 NNE 7 11 29.88 1012 10 16 N/A
2:15 am 02:15 Clear 67 19.5 64 17.6 89 89 NNE 7 11 29.87 1011 10 16 N/A
2:35 am 02:35 Clear 67 19.4 63 17.4 88 88 NE 8 13 29.87 1011 7 11 N/A
2:55 am 02:55 Clear 67 19.2 63 17.4 89 89 NE 8 13 29.87 1011 7 11 N/A
3:15 am 03:15 Clear 66 19 63 17.3 90 90 NE 6 9 29.87 1011 7 11 N/A
3:35 am 03:35 Clear 66 18.9 63 17.2 90 90 NNE 7 11 29.87 1011 10 16 N/A
3:55 am 03:55 Clear 66 18.8 63 17.2 90 90 NNE 6 9 29.87 1011 10 16 N/A
4:15 am 04:15 Partly Cloudy 66 18.7 63 17.1 90 90 NNE 7 11 29.87 1011 10 16 N/A
4:35 am 04:35 Mostly Cloudy 65 18.6 63 17.1 91 91 NNE 7 11 29.87 1011 10 16 N/A
4:55 am 04:55 Partly Cloudy 65 18.4 63 17 92 92 NE 5 7 29.88 1012 7 11 N/A
5:15 am 05:15 Clear 64 18 62 16.8 93 93 NNE 6 9 29.87 1011 7 11 N/A
5:35 am 05:35 Partly Cloudy 64 17.9 62 16.8 93 93 NNE 6 9 29.88 1012 7 11 N/A
5:55 am 05:55 Clear with Mist and Fog 64 17.9 62 16.7 93 93 NNE 5 7 29.88 1012 7 11 N/A
6:15 am 06:15 Partly Cloudy with Mist and Fog 64 17.8 62 16.7 93 93 NNE 5 7 29.89 1012 5 8 N/A
6:35 am 06:35 Sunny with Mist and Fog 64 17.8 62 16.7 93 93 NNE 6 9 29.88 1012 5 8 N/A
6:55 am 06:55 Sunny with Mist and Fog 64 17.8 62 16.7 93 93 NE 7 11 29.89 1012 5 8 N/A
7:15 am 07:15 Sunny with Mist and Fog 65 18.1 62 16.8 92 92 NNE 7 11 29.89 1012 5 8 N/A
7:35 am 07:35 Sunny with Mist and Fog 65 18.3 62 16.9 92 92 NE 6 9 29.89 1012 5 8 N/A
7:55 am 07:55 Sunny with Mist and Fog 66 18.8 63 17.2 90 90 NE 5 7 29.89 1012 7 11 N/A
8:15 am 08:15 Sunny 67 19.2 63 17.2 88 88 NE 6 9 29.90 1012 7 11 N/A
8:35 am 08:35 Sunny 68 20.1 63 17.4 85 85 ENE 7 11 29.89 1012 10 16 N/A
8:55 am 08:55 Sunny 69 20.3 63 17.2 82 82 ENE 13 20 29.89 1012 10 16 N/A
9:15 am 09:15 Sunny 69 20.5 63 17.1 81 81 ENE 13 20 29.89 1012 10 16 N/A
9:35 am 09:35 Sunny 70 20.9 63 17.2 79 79 ENE 10 17 29.89 1012 10 16 N/A
9:55 am 09:55 Sunny 70 21 63 17.2 79 79 NE 14 22 29.89 1012 10 16 N/A
10:15 am 10:15 Sunny 72 22.4 64 17.5 74 74 ENE 15 24 29.88 1012 10 16 N/A
10:35 am 10:35 Sunny 74 23.3 65 18.1 73 73 ENE 13 20 29.88 1012 10 16 N/A
10:55 am 10:55 Sunny 74 23.2 64 17.9 72 72 ENE 10 17 29.88 1012 10 16 N/A
11:15 am 11:15 Sunny 74 23.3 63 17.4 70 70 ENE 13 20 29.89 1012 10 16 N/A
11:35 am 11:35 Sunny 75 24 64 17.7 68 68 NE 14 22 29.89 1012 10 16 N/A
11:55 am 11:55 Sunny 76 24.6 64 17.5 65 65 ENE 15 24 29.88 1012 10 16 N/A
12:15 pm 12:15 Sunny 76 24.4 62 16.7 62 62 ENE 16 26 29.88 1012 10 16 N/A
12:35 pm 12:35 Sunny 77 25 62 16.8 60 60 E 13 20 29.88 1012 10 16 N/A
12:55 pm 12:55 Sunny 78 25.7 62 16.5 57 57 E 14 22 29.88 1012 10 16 N/A
1:15 pm 13:15 Sunny 78 25.6 61 16.1 56 56 ENE 15 24 29.87 1012 10 16 N/A
1:35 pm 13:35 Sunny 78 25.5 60 15.3 53 53 ENE 15 24 29.87 1012 10 16 N/A
1:55 pm 13:55 Sunny 79 26.1 60 15.6 52 52 E 15 24 29.87 1012 10 16 N/A
2:15 pm 14:15 Sunny 79 26.3 61 16.2 54 54 NE 17 28 29.86 1011 10 16 N/A
2:35 pm 14:35 Sunny 79 26.2 60 15.3 51 51 E 14 22 29.86 1011 10 16 N/A
2:55 pm 14:55 Sunny 80 26.4 60 15.5 51 51 E 18 30 29.86 1011 10 16 N/A
3:15 pm 15:15 Sunny 79 26.3 59 14.8 49 49 ENE 16 26 29.86 1011 10 16 N/A
3:35 pm 15:35 Sunny 79 26.2 60 15.4 51 51 ENE 16 26 29.86 1011 10 16 N/A
3:55 pm 15:55 Sunny 79 26.1 59 15 50 50 E 13 20 29.85 1011 10 16 N/A
4:15 pm 16:15 Sunny 79 26.2 59 15.1 50 50 E 14 22 29.85 1011 10 16 N/A
4:35 pm 16:35 Sunny 79 25.9 58 14.6 50 50 E 13 20 29.84 1011 10 16 N/A
4:55 pm 16:55 Sunny 78 25.5 59 15.1 53 53 ENE 13 20 29.84 1011 10 16 N/A
5:15 pm 17:15 Sunny 78 25.4 58 14.7 52 52 E 13 20 29.83 1010 10 16 N/A
5:35 pm 17:35 Sunny 78 25.3 60 15.3 54 54 ENE 10 17 29.83 1010 10 16 N/A
5:55 pm 17:55 Sunny 77 25.1 59 15.1 54 54 ENE 13 20 29.83 1010 10 16 N/A
6:15 pm 18:15 Sunny 78 25.6 60 15.8 55 55 E 13 20 29.82 1010 10 16 N/A
6:35 pm 18:35 Sunny 77 24.8 61 15.9 58 58 E 9 15 29.82 1010 10 16 N/A
6:55 pm 18:55 Sunny 76 24.4 60 15.8 59 59 ENE 12 19 29.83 1010 10 16 N/A
7:15 pm 19:15 Sunny 76 24.3 60 15.3 57 57 ENE 14 22 29.83 1010 10 16 N/A
7:35 pm 19:35 Sunny 75 24 60 15.3 58 58 E 12 19 29.85 1011 10 16 N/A
7:55 pm 19:55 Sunny 75 23.7 60 15.4 60 60 E 13 20 29.85 1011 10 16 N/A
8:15 pm 20:15 Sunny 75 23.7 60 15.4 60 60 ENE 16 26 29.86 1011 10 16 N/A
8:35 pm 20:35 Sunny 74 23.5 60 15.5 61 61 ENE 14 22 29.87 1011 10 16 N/A
8:55 pm 20:55 Sunny 74 23.2 60 15.7 63 63 ENE 14 22 29.87 1011 10 16 N/A
9:15 pm 21:15 Clear 73 23 61 15.9 64 64 ENE 12 19 29.87 1011 10 16 N/A
9:35 pm 21:35 Clear 73 22.8 61 15.9 65 65 ENE 8 13 29.87 1011 10 16 N/A
9:55 pm 21:55 Clear 73 22.8 60 15.7 64 64 ENE 9 15 29.88 1012 10 16 N/A
10:15 pm 22:15 Clear 73 22.6 59 15.2 63 63 ENE 9 15 29.89 1012 10 16 N/A
10:35 pm 22:35 Clear 72 22.3 58 14.6 62 62 ENE 9 15 29.90 1013 10 16 N/A
10:55 pm 22:55 Clear 72 22.4 57 14.1 60 60 NE 10 17 29.90 1012 10 16 N/A
11:15 pm 23:15 Clear 72 22.2 57 13.9 59 59 ENE 12 19 29.90 1013 10 16 N/A
11:35 pm 23:35 Partly Cloudy 72 22.1 56 13.6 59 59 ENE 10 17 29.90 1013 10 16 N/A
11:55 pm 23:55 Partly Cloudy 72 22.1 56 13.2 57 57 ENE 12 19 29.90 1013 10 16 N/A

Powered by AerisWeather